Weather History for Windsor Locks, CT

Change the Weather History Date:

Sunday, February 3, 2013

  Actual Average Record
Temperature  
Mean Temperature 23 °F 27 °F  
Max Temperature 31 °F 36 °F 61 °F (1991)
Min Temperature 15 °F 19 °F -9 °F (1961)
Degree Days  
Heating Degree Days 42 38  
Month to date heating degree days 122 114  
Since 1 July heating degree days 3280 3564  
Cooling Degree Days 0 0  
Month to date cooling degree days 0 0  
Year to date cooling degree days 0 0  
Moisture  
Dew Point 15 °F    
Average Humidity 70    
Maximum Humidity 92    
Minimum Humidity 47    
Precipitation  
Precipitation T in 0.10 in 1.86 in (1970)
Month to date precipitation T 0.31  
Year to date precipitation 1.75 3.54  
Snow  
Snow 0.10 in 0.50 in 7.20 in (1996)
Month to date snowfall 0.1 1.4  
Since 1 July snowfall 21.8 23.1  
Snow Depth -    
Sea Level Pressure  
Sea Level Pressure 29.88 in    
Wind  
Wind Speed 3 mph (NW)    
Max Wind Speed 9 mph    
Max Gust Speed 13 mph    
Visibility 9 miles    
Events Snow    
T = Trace of Precipitation, MM = Missing Value Source: NWS Daily Summary

Daily Weather History Graph

Daily Weather History Graph

Search for Another Location

Airport:

Trip Planner

Search our weather history database for the weather conditions in past years. The results will help you decide how hot, cold, wet, or windy it might be!

Date:

Astronomy

Feb. 03, 2013 Rise Set
Actual Time 7:01 AM EST 5:08 PM EST
Civil Twilight 6:31 AM EST 5:38 PM EST
Nautical Twilight 5:58 AM EST 6:11 PM EST
Astronomical Twilight 5:25 AM EST 6:44 PM EST
Moon 12:25 AM EST (2/3) 10:43 AM EST (2/3)
Length of Visible Light 11h 06m
Length of Day
10h 07m
Waning Gibbous, 49% of the Moon is Illuminated
Feb 3
Waning Gibbous
Feb 10
New
Feb 17
First Quarter
Feb 25
Full
Mar 4
Last Quarter

Hourly Weather History & Observations

Time (EST) Temp. Windchill Dew Point Humidity Pressure Visibility Wind Dir Wind Speed Gust Speed Precip Events Conditions
12:51 AM 21.9 °F 17.2 °F 17.1 °F 82% 30.04 in 5.0 mi SW 3.5 mph - 0.00 in Snow Light Snow
1:51 AM 21.9 °F 17.2 °F 17.1 °F 82% 30.03 in 5.0 mi WNW 3.5 mph - 0.00 in Snow Light Snow
2:51 AM 21.9 °F - 17.1 °F 82% 30.01 in 5.0 mi Calm Calm - 0.00 in Snow Light Snow
3:51 AM 21.9 °F - 17.1 °F 82% 29.99 in 6.0 mi Calm Calm - 0.00 in Snow Light Snow
4:51 AM 19.4 °F - 17.6 °F 93% 29.96 in 10.0 mi Calm Calm - N/A   Overcast
5:51 AM 17.1 °F - 14.0 °F 88% 29.96 in 8.0 mi Calm Calm - N/A   Mostly Cloudy
6:51 AM 17.1 °F 11.7 °F 15.1 °F 92% 29.96 in 7.0 mi North 3.5 mph - N/A   Mostly Cloudy
7:51 AM 19.4 °F - 15.8 °F 86% 29.97 in 8.0 mi Calm Calm - N/A   Mostly Cloudy
8:51 AM 21.9 °F 17.2 °F 18.0 °F 85% 29.97 in 8.0 mi North 3.5 mph - N/A   Mostly Cloudy
9:51 AM 24.1 °F 17.0 °F 16.0 °F 71% 29.95 in 10.0 mi NNE 5.8 mph - N/A   Mostly Cloudy
10:51 AM 27.0 °F - 15.1 °F 61% 29.92 in 10.0 mi Calm Calm - N/A   Mostly Cloudy
11:25 AM 28.4 °F - 15.8 °F 59% 29.89 in 10.0 mi Calm Calm - N/A   Mostly Cloudy
11:40 AM 26.6 °F - 12.2 °F 55% 29.88 in 10.0 mi Calm Calm - N/A   Mostly Cloudy
11:51 AM 27.0 °F - 12.9 °F 56% 29.88 in 10.0 mi Calm Calm - N/A   Mostly Cloudy
12:51 PM 28.9 °F - 12.9 °F 51% 29.84 in 10.0 mi Calm Calm - N/A   Mostly Cloudy
1:51 PM 28.9 °F 25.2 °F 12.0 °F 49% 29.81 in 10.0 mi Variable 3.5 mph - N/A   Mostly Cloudy
2:51 PM 30.0 °F 24.1 °F 12.9 °F 49% 29.79 in 10.0 mi NNE 5.8 mph - N/A   Mostly Cloudy
3:51 PM 28.9 °F 22.8 °F 12.9 °F 51% 29.78 in 10.0 mi NE 5.8 mph - N/A   Mostly Cloudy
4:51 PM 27.0 °F 20.5 °F 12.9 °F 56% 29.77 in 10.0 mi NNE 5.8 mph - N/A   Mostly Cloudy
5:51 PM 27.0 °F - 12.9 °F 56% 29.77 in 10.0 mi Calm Calm - N/A   Mostly Cloudy
6:51 PM 25.0 °F - 15.1 °F 66% 29.78 in 10.0 mi Calm Calm - N/A   Mostly Cloudy
7:51 PM 24.1 °F - 14.0 °F 65% 29.77 in 10.0 mi Calm Calm - N/A   Mostly Cloudy
8:51 PM 23.0 °F 18.4 °F 15.1 °F 72% 29.78 in 10.0 mi West 3.5 mph - N/A   Scattered Clouds
9:51 PM 23.0 °F 15.8 °F 14.0 °F 68% 29.78 in 10.0 mi West 5.8 mph - N/A   Mostly Cloudy
10:51 PM 23.0 °F 14.7 °F 12.9 °F 65% 29.77 in 10.0 mi West 6.9 mph - N/A   Mostly Cloudy
11:51 PM 21.9 °F 13.4 °F 10.9 °F 63% 29.77 in 10.0 mi West 6.9 mph - N/A   Scattered Clouds